Printer-friendly version

IAU Minor Planet Center

Minor Planet Center

MPEC 1999-T34: 1999 TE5

The following Minor Planet Electronic Circular may be linked-to from your own Web pages, but must not otherwise be redistributed electronically.


Read MPEC 1999-T33 Read MPEC 1999-T35


M.P.E.C. 1999-T34                                Issued 1999 Oct. 7, 18:53 UT

     The Minor Planet Electronic Circulars contain information on unusual
         minor planets and routine data on comets.  They are published
   on behalf of Commission 20 of the International Astronomical Union by the
          Minor Planet Center, Smithsonian Astrophysical Observatory,
                          Cambridge, MA 02138, U.S.A.

             BMARSDEN@CFA.HARVARD.EDU or GWILLIAMS@CFA.HARVARD.EDU
          URL http://cfa-www.harvard.edu/iau/mpc.html  ISSN 1523-6714

                                   1999 TE5

Observations:
     J99T05E* C1999 10 03.33748 03 04 58.29 +19 43 02.0          18.5        704
     J99T05E  C1999 10 03.34785 03 04 59.30 +19 43 31.7          18.9        704
     J99T05E  C1999 10 03.35822 03 05 00.33 +19 44 02.9          18.9        704
     J99T05E  C1999 10 03.36865 03 05 01.28 +19 44 31.9          18.9        704
     J99T05E  C1999 10 03.37905 03 05 02.24 +19 45 02.1          18.6        704
     J99T05E  C1999 10 04.87251 03 07 43.08 +20 54 39.8                      557
     J99T05E  C1999 10 04.87378 03 07 43.20 +20 54 43.1                      557
     J99T05E  C1999 10 04.87507 03 07 43.34 +20 54 47.1          18.5 V      557
     J99T05E  C1999 10 05.34669 03 08 30.28 +21 16 43.8          17.8        704
     J99T05E  C1999 10 05.36024 03 08 31.45 +21 17 21.0          18.5        704
     J99T05E  C1999 10 05.37379 03 08 32.57 +21 17 58.5          18.1        704
     J99T05E  C1999 10 05.38735 03 08 33.71 +21 18 35.7          18.1        704
     J99T05E  C1999 10 05.40092 03 08 34.86 +21 19 12.9          17.7        704
     J99T05E  C1999 10 06.10940 03 09 44.47 +21 51 13.4          18.2 R      046
     J99T05E  C1999 10 06.11061 03 09 44.57 +21 51 16.4                      046
     J99T05E  C1999 10 06.11208 03 09 44.69 +21 51 20.5                      046
     J99T05E  C1999 10 06.11317 03 09 44.78 +21 51 22.8                      046
     J99T05E  C1999 10 07.06318 03 11 15.62 +22 33 48.6                      118
     J99T05E  C1999 10 07.06660 03 11 15.89 +22 33 57.0                      118
     J99T05E  C1999 10 07.06826 03 11 16.12 +22 34 04.6                      595
     J99T05E  C1999 10 07.07361 03 11 16.40 +22 34 16.2                      118
     J99T05E  C1999 10 07.07394 03 11 16.53 +22 34 17.9          18.6 V      595

Observer details:
046 Klet.  Observers M. Tichy, Z. Moravec.  0.57-m f/5.2 reflector + CCD.
118 Modra.  Observers L. Kornos, J. Toth.  0.6-m f/5.5 reflector + CCD.
557 Ondrejov.  Observer L. Sarounova.  0.65-m f/3.6 reflector + CCD.
595 Farra d'Isonzo.  Observer A. Toso.  0.40-m f/4.5 reflector + CCD
704 Lincoln Laboratory ETS, New Mexico.  Observers M. Blythe, F. Shelly,
    M. Bezpalko, M. Elowitz.  Measurers J. Stuart, H. Viggh, R. Sayer.  1.0-m
    f/2.15 reflector + CCD.

Orbital elements:
1999 TE5
Epoch 1999 Sept. 19.0 TT = JDT 2451440.5                Williams
M 358.31334              (2000.0)            P               Q
n   0.29814321     Peri.  354.95615     +0.99119726     -0.13001160
a   2.2191472      Node    12.59687     +0.12512487     +0.85822191
e   0.4796125      Incl.    6.58226     +0.04326385     +0.49654016
P   3.31           H   20.3           G   0.15
From 22 observations 1999 Oct. 3-7.

Ephemeris:
1999 TE5                 a,e,i = 2.22, 0.48, 7                   q = 1.1548
Date    TT    R. A. (2000) Decl.     Delta      r     Elong.  Phase     V
1999 09 29    02 56.30   +16 10.6    0.194    1.156   139.0    34.6    18.5
1999 10 04    03 06.16   +20 14.5    0.197    1.159   140.5    33.3    18.5
1999 10 09    03 14.11   +23 57.9    0.202    1.166   142.4    31.6    18.5
1999 10 14    03 20.09   +27 16.2    0.209    1.174   144.6    29.5    18.5
1999 10 19    03 24.15   +30 06.9    0.219    1.186   147.1    27.2    18.6
1999 10 24    03 26.45   +32 28.9    0.230    1.199   149.9    24.6    18.6
1999 10 29    03 27.20   +34 22.4    0.243    1.215   152.8    22.0    18.7
1999 11 03    03 26.70   +35 48.3    0.259    1.233   155.6    19.4    18.8
1999 11 08    03 25.35   +36 48.3    0.277    1.252   158.2    17.1    18.9
1999 11 13    03 23.61   +37 25.4    0.297    1.274   160.2    15.3    19.0
1999 11 18    03 21.93   +37 42.8    0.321    1.296   161.2    14.2    19.2
1999 11 23    03 20.65   +37 44.6    0.347    1.321   161.2    14.0    19.4
1999 11 28    03 20.00   +37 34.3    0.376    1.346   159.9    14.6    19.6
1999 12 03    03 20.12   +37 15.1    0.409    1.373   157.8    15.8    19.9
1999 12 08    03 21.13   +36 50.2    0.444    1.401   155.0    17.3    20.2
1999 12 13    03 23.08   +36 21.9    0.484    1.429   151.8    19.0    20.5
1999 12 18    03 25.95   +35 52.6    0.526    1.458   148.3    20.8    20.7
1999 12 23    03 29.69   +35 23.5    0.572    1.488   144.8    22.4    21.0
1999 12 28    03 34.19   +34 55.6    0.621    1.518   141.2    23.9    21.3
2000 01 02    03 39.40   +34 29.5    0.673    1.549   137.6    25.3    21.6
2000 01 07    03 45.24   +34 05.3    0.729    1.580   134.1    26.6    21.8

Gareth V. Williams           (C) Copyright 1999 MPC           M.P.E.C. 1999-T34

Read MPEC 1999-T33 Read MPEC 1999-T35


Our Web policy. Index to the CBAT/MPC/ICQ pages.


Valid HTML 4.01!